Wind_Speed
3 3 4 4 4 4 5 5 5 5 5 5 5 5 6 6 6 7 7 6 6 5 5 5 5 5 5 5 4 4 3 4 4 5 6 5 5 6 6 8 9 9 9 8 8 9 9 9 8
3 3 3 4 3 4 5 5 5 4 4 4 5 5 6 6 7 7 7 7 7 7 6 6 6 6 5 5 5 5 4 4 5 5 5 5 5 6 7 8 8 9 9 9 9 9 9 10 10
4 3 3 4 4 4 4 5 5 4 3 4 5 5 5 5 6 7 7 7 7 7 7 7 6 6 6 6 6 6 5 5 5 5 5 5 6 7 7 8 8 9 10 10 10 10 10 10 11
4 4 4 5 5 4 4 5 5 4 5 5 5 5 6 6 6 7 7 7 7 7 7 7 7 7 6 6 6 6 6 6 6 6 6 6 7 7 7 8 8 8 9 9 10 10 10 11 11
4 5 5 6 5 4 4 5 4 4 5 5 5 6 5 5 6 6 6 6 7 7 7 7 7 6 7 7 6 7 7 7 7 6 7 7 7 7 8 8 8 9 9 10 10 10 10 10 11
5 6 6 6 6 5 4 4 3 3 4 4 5 5 5 5 5 5 5 6 6 7 6 6 6 6 6 6 6 6 7 7 7 7 7 8 8 8 9 8 8 8 9 9 9 10 9 9 10
6 6 6 6 6 6 4 4 3 3 4 4 4 4 4 4 4 5 5 5 4 5 5 6 6 6 6 5 6 5 6 6 6 7 7 8 9 10 10 9 9 9 9 9 10 10 10 10 10
6 6 6 6 6 5 4 4 4 3 3 3 3 3 3 3 3 3 4 3 3 3 4 4 4 5 5 5 5 5 5 5 6 6 7 8 8 8 9 9 9 9 9 10 10 10 10 10 11
5 5 6 5 5 5 5 4 3 2 3 3 2 2 3 3 2 3 3 3 3 3 3 4 3 3 4 4 4 5 5 5 6 6 6 6 6 6 6 7 8 9 10 10 10 11 11 11 11
4 4 4 4 5 4 4 3 2 2 2 2 2 2 2 2 3 3 2 2 2 2 3 3 3 3 4 4 4 5 5 5 5 5 5 5 5 5 6 7 8 9 9 10 10 11 11 11 11
4 4 4 4 3 3 2 2 2 2 2 2 2 3 2 2 3 3 3 3 3 3 3 3 3 4 4 4 5 5 6 6 6 5 5 5 5 5 6 7 7 8 8 9 10 9 10 10 11
5 4 4 3 2 2 2 3 2 1 2 3 3 3 3 4 3 4 4 3 3 3 3 3 3 4 4 4 4 5 5 5 5 5 5 5 5 6 6 7 7 7 8 8 9 9 10 10 11
4 4 3 3 3 3 3 3 3 2 3 3 4 4 4 4 4 4 5 4 4 3 3 3 3 4 4 4 4 4 5 5 5 5 5 5 5 6 6 6 7 7 7 8 9 9 10 10 11
4 3 3 3 3 3 4 3 3 3 4 4 4 5 5 5 5 5 5 5 5 5 5 5 4 4 5 5 5 5 5 5 5 5 4 5 5 5 6 7 7 7 8 9 9 9 10 10 11
4 3 3 4 4 4 4 4 4 4 5 5 5 5 5 5 6 6 6 6 5 6 6 6 6 6 6 5 6 6 6 6 5 5 5 5 5 6 6 7 8 8 8 8 9 9 9 9 10
4 4 4 4 5 5 5 5 5 6 6 6 5 5 6 6 6 6 6 6 7 7 7 6 6 6 6 6 6 6 6 6 6 6 6 5 6 7 8 8 8 8 8 8 8 8 9 9 10
5 5 5 5 6 6 5 5 6 7 6 6 6 6 6 6 7 7 7 7 7 7 7 7 7 7 7 7 7 7 7 7 6 6 7 8 7 7 8 8 9 9 9 8 8 8 9 9 10
5 5 5 5 5 6 5 5 6 6 6 6 6 6 7 6 7 7 7 7 7 7 7 7 7 7 8 8 7 7 7 7 7 7 8 9 10 9 8 9 9 9 9 10 9 9 9 9 10
6 6 6 6 6 7 6 6 6 6 6 6 6 7 7 7 7 7 7 7 7 7 7 7 7 7 7 7 7 8 8 8 8 8 9 9 10 10 10 9 9 10 10 10 10 10 10 10 10
8 8 8 8 8 8 8 8 7 7 7 6 6 7 7 7 7 7 7 8 8 8 8 8 8 8 8 8 8 8 9 9 9 9 10 10 10 11 11 11 11 11 11 11 11 11 11 11 11
9 9 9 8 8 9 10 9 7 7 7 7 7 7 8 8 8 8 8 8 9 8 8 9 9 10 10 10 9 9 10 10 10 10 10 11 11 11 12 12 12 12 12 12 12 12 12 12 12
10 10 10 10 10 10 10 10 8 8 7 7 8 8 8 9 9 9 9 9 9 9 9 10 10 10 10 10 11 11 11 11 11 11 11 11 12 12 13 13 13 13 13 13 13 13 12 12 12
10 11 11 10 11 12 12 12 10 10 9 8 8 9 9 10 10 10 10 10 9 10 10 10 10 10 11 12 12 12 12 12 12 12 12 12 13 13 13 13 13 13 14 14 14 14 13 13 13
11 11 12 12 13 13 12 12 11 11 10 10 9 10 10 11 11 10 11 12 11 11 10 10 11 11 11 12 12 12 12 12 13 13 13 13 13 13 14 14 14 14 14 14 14 14 14 13 13
12 13 13 14 14 14 12 13 12 11 11 11 11 11 11 11 11 11 11 12 11 11 11 11 12 12 12 12 13 13 13 14 13 13 13 13 13 14 14 14 14 14 14 14 14 14 14 14 13
13 14 14 15 15 15 14 14 12 13 13 12 12 13 13 12 12 11 12 12 12 12 12 12 12 12 13 13 13 14 14 14 14 13 13 13 14 14 14 14 14 14 15 14 15 15 15 14 14
14 15 15 16 16 16 15 15 14 13 13 12 12 13 13 12 12 11 12 13 13 13 13 13 13 13 13 13 14 14 15 15 14 14 14 15 15 15 15 15 15 15 15 15 15 15 15 14 14
15 15 15 16 17 17 17 15 14 14 13 13 13 13 13 12 12 12 12 13 13 14 14 14 14 14 14 14 14 15 15 15 15 15 15 16 16 16 16 16 16 16 15 15 15 15 15 15 15
15 14 15 16 17 17 17 16 14 14 14 14 13 14 14 13 13 13 13 13 14 14 14 14 15 15 15 15 15 15 15 15 15 15 16 16 17 17 17 17 17 17 16 16 16 16 16 16 16
15 14 14 15 16 17 18 17 15 15 15 15 14 14 14 15 14 14 14 14 14 15 15 15 15 15 16 16 16 16 16 16 16 16 16 17 17 17 18 17 18 17 17 17 17 16 17 16 16
Wind_Direction
208 204 206 207 213 221 220 225 228 235 244 250 249 252 256 257 258 260 261 264 267 273 273 274 278 281 284 282 284 290 293 290 278 271 262 254 251 247 241 233 235 239 239 239 239 240 238 238 242
221 216 217 224 224 230 223 226 231 241 247 251 251 255 259 262 261 259 259 264 269 270 270 274 274 273 273 273 274 278 280 281 282 271 264 259 250 243 239 235 236 239 239 242 247 248 243 243 245
229 229 238 245 243 244 241 235 237 250 253 256 260 264 266 267 264 259 258 263 268 268 266 270 271 272 270 268 267 270 271 273 281 279 268 261 256 248 243 240 241 245 243 243 248 250 249 248 250
242 240 243 252 255 253 255 255 253 259 261 259 268 275 271 271 265 259 256 260 265 269 266 265 266 266 265 266 266 265 265 268 274 278 275 268 267 261 253 247 247 249 247 246 249 250 252 249 249
251 247 247 254 259 255 251 257 264 264 263 273 277 279 274 271 268 265 262 266 269 269 269 263 268 265 263 263 265 265 266 269 271 275 274 271 269 262 253 251 251 251 254 258 257 256 257 252 251
254 255 255 260 260 256 251 255 269 277 276 273 272 275 278 271 269 271 271 270 272 270 270 271 271 268 267 263 264 264 265 267 270 271 273 273 269 261 259 258 258 261 264 264 263 261 262 259 255
253 260 265 266 265 260 252 252 261 277 278 274 278 279 273 274 272 273 273 269 269 267 268 274 273 272 270 265 261 261 261 260 264 270 275 277 275 268 263 260 260 261 263 264 264 261 259 258 256
260 257 261 264 266 259 255 263 268 274 272 268 274 281 276 278 271 272 284 281 277 271 270 275 276 271 268 264 265 267 265 262 266 274 282 285 284 277 265 262 264 265 265 264 263 260 257 257 254
268 257 258 260 268 270 264 264 270 285 280 276 278 281 282 274 283 286 289 285 279 276 278 280 276 276 275 272 271 275 279 282 282 288 297 303 301 293 276 269 268 269 270 268 265 262 259 258 257
268 263 266 264 259 257 263 256 266 282 282 284 289 288 282 286 290 287 282 281 284 270 275 280 275 276 283 286 290 286 286 285 287 290 295 304 306 295 285 282 278 274 272 272 272 268 265 263 261
265 259 260 259 262 247 256 266 267 277 277 288 297 290 289 294 292 284 270 273 289 279 271 271 273 280 288 289 289 290 288 286 283 282 288 298 300 300 297 293 288 281 275 273 272 271 268 265 263
265 265 262 257 248 244 250 267 276 273 266 279 288 284 282 287 286 287 283 275 282 274 272 267 265 271 281 284 284 286 287 288 283 286 288 293 300 301 300 297 292 286 278 277 274 273 267 264 263
264 262 243 239 231 235 247 258 277 272 270 282 288 287 283 281 281 270 269 270 274 273 269 268 266 273 280 280 282 285 286 289 287 284 287 296 302 305 305 302 298 293 287 283 281 275 270 265 263
254 250 234 239 241 242 250 261 274 272 274 283 284 284 285 284 279 269 268 266 269 271 271 269 267 274 279 282 282 287 289 288 284 277 279 285 293 298 303 305 301 296 293 291 289 282 277 273 269
247 249 242 241 249 252 256 261 267 277 281 288 285 283 287 288 284 279 276 267 267 270 266 267 268 275 283 285 281 281 282 284 279 279 283 279 288 293 297 302 302 299 298 296 290 283 279 275 271
251 248 250 248 250 250 252 259 269 276 283 285 281 283 288 290 287 283 280 274 271 273 271 270 271 276 280 280 282 279 279 280 280 281 287 285 287 288 292 296 298 296 298 297 292 286 280 278 272
255 263 257 255 253 251 257 263 267 272 278 281 281 282 287 287 287 283 277 273 276 276 274 272 272 274 275 274 276 278 278 277 279 282 287 289 295 293 293 295 296 294 293 294 292 288 285 281 275
273 271 261 260 258 262 267 273 269 274 276 276 276 280 285 287 285 283 279 274 275 276 276 276 275 275 275 276 276 276 277 274 276 282 286 289 292 293 293 293 292 293 294 294 292 289 287 284 279
271 272 265 263 259 262 265 270 272 274 271 272 275 279 283 284 282 281 282 278 273 274 275 277 277 277 278 276 276 273 272 273 276 281 286 290 291 292 296 294 292 294 294 292 291 290 287 283 280
266 271 267 263 263 265 265 268 270 268 269 274 280 284 284 284 281 279 279 278 275 272 273 273 274 272 273 274 272 273 272 272 275 279 282 287 290 293 296 296 295 293 293 291 289 288 287 283 280
265 267 267 266 268 266 268 268 274 269 267 271 282 285 283 282 283 279 280 281 281 273 273 275 272 271 272 274 275 276 276 274 275 279 282 287 290 293 295 297 296 294 292 290 289 286 285 281 277
264 265 266 270 273 273 274 270 271 272 268 270 279 284 284 282 282 281 278 280 282 278 273 274 272 271 273 273 274 278 278 277 278 279 281 284 287 290 292 293 295 295 293 290 290 288 288 284 280
269 269 269 270 272 274 276 275 272 271 269 273 278 282 284 283 280 281 279 278 279 283 275 276 276 273 274 275 275 275 277 279 280 281 282 284 288 290 291 292 293 293 294 293 290 289 289 287 283
267 266 265 265 270 269 274 272 267 268 274 278 278 281 281 283 281 281 278 275 275 278 276 280 278 276 276 277 275 274 275 277 280 282 282 284 286 287 289 291 291 291 292 292 291 291 289 286 283
266 265 264 264 269 270 272 268 270 270 273 279 281 281 283 281 279 278 275 273 272 271 274 277 276 277 277 278 277 276 276 278 279 281 282 283 283 283 286 289 290 291 291 290 290 290 287 283 281
268 268 268 271 273 275 274 269 275 277 276 279 279 279 280 277 272 274 274 272 271 269 269 274 276 277 279 279 279 279 279 279 279 280 281 281 281 281 283 285 287 289 291 291 291 289 286 282 280
268 269 270 270 272 272 271 275 277 278 277 275 275 275 274 272 267 268 271 273 272 271 268 271 276 278 279 281 280 279 279 279 279 280 280 281 281 280 280 281 284 287 289 290 290 288 284 282 280
264 267 266 266 271 272 272 277 281 277 277 278 275 274 274 270 265 263 264 267 268 270 271 270 274 278 279 280 281 282 281 280 279 280 281 282 282 281 280 280 283 284 286 286 287 287 285 281 280
259 259 262 266 269 271 273 275 281 278 278 278 276 274 271 268 263 258 260 262 265 268 269 271 272 275 277 279 280 281 281 281 279 278 279 281 282 282 281 280 281 282 283 284 286 286 283 280 279
256 258 262 265 268 269 271 271 273 276 276 275 275 272 271 267 263 259 259 259 263 267 269 274 274 275 276 277 279 279 280 281 279 278 279 281 282 282 281 280 280 281 281 281 283 285 282 279 277
Height
5859 5859 5860 5861 5861 5861 5860 5861 5861 5861 5861 5861 5861 5862 5862 5863 5864 5866 5864 5863 5863 5863 5863 5863 5863 5863 5863 5863 5863 5863 5862 5862 5862 5861 5861 5861 5861 5861 5860 5861 5862 5862 5863 5863 5864 5864 5865 5865 5865
5858 5859 5860 5860 5860 5860 5860 5860 5860 5860 5860 5860 5860 5860 5861 5861 5862 5862 5861 5861 5862 5862 5862 5862 5862 5862 5862 5862 5862 5862 5862 5861 5861 5861 5860 5860 5860 5860 5860 5860 5861 5861 5861 5862 5862 5863 5863 5864 5864
5858 5858 5860 5860 5859 5859 5860 5859 5859 5859 5859 5859 5859 5859 5860 5860 5860 5859 5860 5860 5860 5860 5860 5861 5861 5861 5861 5861 5861 5861 5861 5860 5860 5860 5859 5859 5859 5859 5859 5859 5860 5860 5860 5860 5861 5861 5861 5862 5862
5858 5859 5859 5859 5858 5858 5858 5858 5858 5858 5858 5858 5858 5858 5858 5858 5858 5858 5858 5858 5858 5858 5859 5859 5859 5859 5859 5859 5859 5859 5859 5859 5859 5858 5858 5857 5857 5857 5857 5858 5858 5858 5858 5859 5859 5859 5860 5860 5860
5857 5858 5858 5857 5857 5857 5857 5857 5857 5857 5856 5856 5857 5856 5856 5857 5856 5856 5856 5856 5857 5857 5857 5857 5857 5857 5858 5858 5858 5858 5857 5857 5857 5857 5856 5856 5855 5855 5856 5856 5856 5856 5857 5857 5857 5858 5858 5858 5858
5857 5857 5857 5856 5856 5856 5856 5855 5855 5855 5855 5855 5855 5855 5855 5855 5855 5855 5855 5855 5855 5855 5855 5855 5856 5856 5856 5856 5856 5856 5856 5856 5855 5855 5855 5854 5853 5853 5853 5854 5854 5855 5855 5855 5855 5856 5856 5856 5856
5856 5855 5855 5855 5854 5854 5855 5855 5855 5855 5854 5854 5854 5854 5853 5854 5853 5853 5853 5853 5853 5853 5854 5854 5854 5855 5855 5855 5855 5855 5854 5854 5854 5853 5853 5852 5850 5849 5850 5851 5852 5853 5853 5853 5853 5853 5854 5854 5854
5854 5854 5853 5853 5853 5853 5853 5853 5853 5853 5853 5853 5853 5853 5852 5853 5852 5852 5852 5852 5852 5852 5852 5853 5853 5853 5853 5853 5853 5853 5853 5853 5852 5852 5851 5849 5847 5845 5846 5848 5850 5850 5851 5851 5851 5851 5851 5851 5851
5852 5854 5852 5852 5852 5852 5852 5852 5852 5852 5852 5852 5852 5852 5852 5851 5851 5851 5851 5851 5851 5851 5851 5851 5852 5852 5852 5852 5852 5852 5852 5851 5851 5850 5849 5848 5845 5843 5844 5846 5847 5848 5848 5848 5848 5848 5848 5849 5849
5851 5852 5851 5851 5851 5850 5850 5851 5851 5851 5851 5851 5851 5850 5850 5850 5850 5851 5851 5851 5851 5850 5850 5850 5850 5851 5851 5851 5851 5850 5850 5850 5850 5849 5848 5847 5845 5844 5844 5845 5845 5846 5846 5846 5846 5845 5846 5846 5846
5850 5850 5849 5849 5849 5849 5849 5850 5850 5850 5850 5850 5849 5849 5849 5849 5849 5849 5849 5849 5849 5849 5849 5849 5849 5849 5850 5850 5849 5849 5849 5849 5848 5848 5847 5846 5845 5844 5844 5844 5844 5844 5844 5843 5843 5843 5843 5843 5843
5849 5848 5848 5848 5848 5848 5848 5848 5849 5849 5849 5849 5848 5848 5848 5848 5848 5848 5848 5848 5848 5848 5848 5848 5848 5848 5848 5848 5848 5848 5847 5847 5847 5846 5846 5845 5844 5844 5843 5843 5842 5842 5842 5841 5841 5841 5841 5841 5840
5847 5847 5847 5847 5847 5847 5847 5847 5848 5848 5848 5847 5847 5847 5847 5847 5847 5846 5847 5847 5847 5847 5847 5847 5847 5847 5846 5846 5846 5846 5846 5846 5845 5845 5844 5844 5844 5843 5842 5841 5841 5840 5840 5839 5839 5838 5838 5838 5838
5846 5845 5845 5845 5845 5846 5846 5846 5847 5846 5846 5846 5846 5845 5845 5845 5845 5845 5845 5845 5845 5845 5845 5845 5845 5845 5845 5845 5845 5844 5844 5844 5844 5843 5843 5842 5842 5842 5841 5840 5839 5839 5838 5837 5836 5836 5835 5835 5835
5844 5844 5844 5844 5844 5844 5845 5845 5845 5845 5845 5844 5844 5844 5844 5844 5843 5843 5843 5843 5843 5843 5843 5843 5843 5843 5843 5843 5843 5842 5842 5842 5842 5841 5841 5841 5840 5840 5839 5839 5838 5837 5836 5835 5834 5833 5833 5833 5832
5843 5843 5843 5843 5843 5843 5845 5844 5843 5843 5843 5843 5842 5842 5842 5842 5841 5841 5841 5841 5841 5841 5841 5841 5841 5841 5841 5841 5841 5841 5840 5840 5840 5839 5839 5838 5838 5838 5837 5837 5836 5835 5834 5833 5832 5831 5831 5830 5830
5842 5842 5842 5842 5841 5841 5842 5842 5841 5841 5841 5841 5840 5840 5840 5840 5840 5839 5839 5839 5839 5839 5839 5839 5839 5839 5839 5839 5839 5838 5838 5838 5838 5837 5837 5837 5836 5836 5835 5834 5833 5832 5832 5831 5830 5829 5829 5828 5827
5840 5840 5840 5840 5839 5839 5839 5839 5839 5838 5838 5838 5838 5838 5838 5838 5838 5837 5837 5837 5837 5837 5837 5837 5837 5837 5836 5836 5836 5836 5836 5836 5836 5835 5835 5834 5834 5833 5832 5832 5831 5830 5829 5828 5827 5827 5826 5826 5825
5837 5837 5837 5837 5837 5837 5837 5837 5837 5837 5837 5836 5836 5836 5836 5836 5835 5835 5835 5835 5835 5835 5834 5834 5834 5834 5834 5834 5834 5834 5834 5833 5833 5833 5832 5832 5831 5830 5829 5829 5828 5827 5826 5825 5825 5824 5823 5823 5822
5834 5835 5835 5835 5834 5834 5834 5834 5835 5834 5834 5834 5834 5833 5833 5833 5833 5833 5832 5832 5832 5832 5832 5832 5832 5832 5832 5832 5831 5831 5831 5831 5830 5830 5830 5829 5828 5827 5827 5826 5825 5824 5823 5822 5822 5821 5820 5820 5819
5832 5832 5832 5832 5832 5832 5831 5832 5832 5832 5831 5831 5831 5831 5831 5830 5830 5830 5830 5829 5829 5829 5829 5829 5829 5829 5829 5829 5828 5828 5828 5828 5827 5827 5827 5826 5825 5825 5824 5823 5822 5821 5820 5819 5819 5818 5817 5816 5816
5829 5830 5829 5829 5829 5829 5829 5828 5829 5829 5829 5829 5828 5828 5828 5827 5827 5827 5827 5827 5826 5826 5826 5826 5826 5826 5826 5826 5825 5825 5825 5824 5824 5824 5823 5823 5822 5821 5821 5820 5819 5818 5817 5816 5815 5814 5814 5813 5812
5826 5826 5826 5826 5825 5825 5825 5825 5826 5825 5825 5826 5825 5825 5824 5824 5824 5824 5824 5824 5823 5823 5823 5823 5823 5823 5823 5822 5822 5822 5821 5821 5821 5820 5820 5819 5819 5818 5817 5816 5815 5814 5813 5812 5812 5811 5810 5809 5808
5823 5824 5823 5823 5822 5822 5822 5821 5822 5822 5822 5822 5822 5821 5821 5821 5821 5820 5820 5820 5820 5820 5819 5820 5820 5819 5819 5819 5819 5818 5818 5817 5817 5816 5816 5815 5815 5814 5813 5812 5811 5811 5810 5809 5808 5807 5806 5805 5804
5820 5820 5819 5818 5818 5818 5819 5817 5819 5819 5818 5818 5817 5817 5817 5817 5817 5817 5817 5816 5816 5816 5816 5816 5816 5816 5816 5815 5815 5814 5814 5814 5813 5812 5812 5811 5811 5810 5809 5808 5807 5806 5805 5805 5804 5803 5801 5801 5800
5816 5816 5816 5815 5814 5814 5814 5813 5815 5815 5814 5814 5814 5813 5813 5813 5813 5813 5813 5813 5813 5813 5813 5813 5812 5812 5812 5811 5811 5810 5810 5809 5809 5808 5808 5807 5807 5806 5805 5804 5803 5802 5801 5800 5799 5798 5797 5796 5796
5811 5811 5812 5811 5810 5810 5810 5810 5810 5810 5810 5810 5809 5809 5809 5809 5809 5809 5808 5808 5809 5809 5809 5809 5809 5808 5808 5807 5807 5806 5805 5805 5804 5804 5803 5802 5802 5801 5801 5800 5799 5798 5797 5796 5795 5794 5793 5792 5792
5807 5807 5807 5806 5805 5805 5806 5805 5806 5806 5806 5806 5805 5804 5804 5804 5805 5805 5804 5804 5804 5805 5804 5805 5804 5804 5804 5803 5802 5801 5800 5800 5799 5799 5798 5797 5797 5796 5795 5795 5794 5793 5793 5792 5791 5790 5788 5788 5787
5802 5802 5802 5802 5801 5801 5801 5804 5802 5802 5801 5801 5800 5800 5800 5800 5800 5800 5800 5800 5800 5800 5800 5800 5800 5800 5799 5798 5798 5796 5796 5795 5795 5794 5793 5793 5792 5791 5790 5789 5789 5788 5788 5787 5786 5785 5784 5783 5783
5797 5797 5798 5798 5797 5797 5796 5800 5798 5797 5797 5796 5796 5796 5795 5795 5795 5795 5795 5796 5796 5796 5795 5795 5795 5795 5794 5793 5792 5792 5791 5790 5789 5789 5788 5788 5786 5785 5785 5784 5783 5783 5782 5782 5781 5780 5779 5778 5778